Date,TemperatureHighF,TemperatureAvgF,TemperatureLowF,DewpointHighF,DewpointAvgF,DewpointLowF,HumidityHigh,HumidityAvg,HumidityLow,PressureMaxIn,PressureMinIn,WindSpeedMaxMPH,WindSpeedAvgMPH,GustSpeedMaxMPH,PrecipitationSumIn
2013-3-1,38,31,19,-100,-100,-100,0,0,100,0.00,40.00,0,-999,0,0.01
2013-3-2,48,41,35,-100,-100,-100,0,0,100,0.00,40.00,0,-999,0,0.01
2013-3-3,50,40,24,-100,-100,-100,0,0,100,0.00,40.00,0,-999,0,0.00
2013-3-4,24,15,9,-100,-100,-100,0,0,100,0.00,40.00,0,-999,0,0.00
2013-3-5,35,19,8,-100,-100,-100,0,0,100,0.00,40.00,0,-999,0,0.01
2013-3-6,52,35,18,-100,-100,-100,0,0,100,0.00,40.00,0,-999,0,0.01
2013-3-7,49,38,27,-100,-100,-100,0,0,100,0.00,40.00,0,-999,0,0.01
2013-3-8,43,33,26,-100,-100,-100,0,0,100,0.00,40.00,0,-999,0,0.00
2013-3-9,32,28,21,-100,-100,-100,0,0,100,0.00,40.00,0,-999,0,0.00
2013-3-10,40,26,13,-100,-100,-100,0,0,100,0.00,40.00,0,-999,0,0.00
2013-3-11,36,29,22,-100,-100,-100,0,0,100,0.00,40.00,0,-999,0,0.01
2013-3-12,32,23,13,-100,-100,-100,0,0,100,0.00,40.00,0,-999,0,0.00
2013-3-13,52,44,32,-100,-100,-100,0,0,100,0.00,40.00,0,-999,0,0.01
2013-3-14,58,47,35,-100,-100,-100,0,0,100,0.00,40.00,0,-999,0,0.00
2013-3-15,54,45,35,-100,-100,-100,0,0,100,0.00,40.00,0,-999,0,0.00
2013-3-16,38,34,29,-100,-100,-100,0,0,100,0.00,40.00,0,-999,0,0.01
2013-3-17,43,29,19,-100,-100,-100,0,0,100,0.00,40.00,0,-999,0,0.01
2013-3-18,30,22,12,-100,-100,-100,0,0,100,0.00,40.00,0,-999,0,0.01
2013-3-19,28,20,6,-100,-100,-100,0,0,100,0.00,40.00,0,-999,0,0.00
2013-3-20,46,31,4,-100,-100,-100,0,0,100,0.00,40.00,0,-999,0,0.01
2013-3-21,45,31,22,-100,-100,-100,0,0,100,0.00,40.00,0,-999,0,0.01
2013-3-22,31,24,13,-100,-100,-100,0,0,100,0.00,40.00,0,-999,0,0.02
2013-3-23,24,15,8,-100,-100,-100,0,0,100,0.00,40.00,0,-999,0,0.01
2013-3-24,17,10,6,-100,-100,-100,0,0,100,0.00,40.00,0,-999,0,0.00
2013-3-25,38,21,2,-100,-100,-100,0,0,100,0.00,40.00,0,-999,0,0.01
2013-3-26,42,31,14,-100,-100,-100,0,0,100,0.00,40.00,0,-999,0,0.01
2013-3-27,50,34,18,-100,-100,-100,0,0,100,0.00,40.00,0,-999,0,0.00
2013-3-28,55,40,28,-100,-100,-100,0,0,100,0.00,40.00,0,-999,0,0.01
2013-3-29,57,47,32,-100,-100,-100,0,0,100,0.00,40.00,0,-999,0,0.00
2013-3-30,44,37,31,-100,-100,-100,0,0,100,0.00,40.00,0,-999,0,0.00
2013-3-31,47,36,27,-100,-100,-100,0,0,100,0.00,40.00,0,-999,0,0.01